TimeCET,TemperatureF,Dew PointF,Humidity,Sea Level PressureIn,VisibilityMPH,Wind Direction,Wind SpeedMPH,Gust SpeedMPH,PrecipitationIn,Events,Conditions,WindDirDegrees,DateUTC
12:55 AM,41.0,41.0,100,30.12,6.2,West,5.8,-,N/A,,Partly Cloudy,270,2012-12-29 23:55:00
1:00 AM,41,41,100,30.14,6,West,5.8,,,,Scattered Clouds,270,2012-12-30 00:00:00
1:55 AM,41.0,41.0,100,30.15,6.2,NW,5.8,-,N/A,,Partly Cloudy,310,2012-12-30 00:55:00
2:55 AM,41.0,41.0,100,30.12,6.2,WNW,4.6,-,N/A,,Scattered Clouds,300,2012-12-30 01:55:00
3:55 AM,39.2,39.2,100,30.15,6.2,West,2.3,-,N/A,,Scattered Clouds,270,2012-12-30 02:55:00
4:00 AM,39,39,99,30.16,6,West,2.3,,,,Partly Cloudy,270,2012-12-30 03:00:00
4:55 AM,37.4,37.4,100,30.15,6.2,Calm,Calm,-,N/A,,Scattered Clouds,0,2012-12-30 03:55:00
5:55 AM,37.4,37.4,100,30.15,6.2,WSW,2.3,-,N/A,,Scattered Clouds,250,2012-12-30 04:55:00
6:55 AM,37.4,37.4,100,30.15,6.2,WNW,2.3,-,N/A,,Partly Cloudy,290,2012-12-30 05:55:00
7:00 AM,38,38,99,30.17,6,WNW,2.3,,,,Scattered Clouds,290,2012-12-30 06:00:00
7:55 AM,39.2,39.2,100,30.15,-9999.0,WNW,5.8,-,N/A,,Clear,300,2012-12-30 06:55:00
8:55 AM,46.4,41.0,81,30.15,-9999.0,WNW,5.8,-,N/A,,Clear,300,2012-12-30 07:55:00
9:55 AM,53.6,41.0,62,30.18,-9999.0,WNW,3.5,-,N/A,,Clear,300,2012-12-30 08:55:00
10:00 AM,53,41,54,30.19,6,WNW,3.5,,,,Clear,300,2012-12-30 09:00:00
10:55 AM,59.0,41.0,51,30.18,-9999.0,South,2.3,-,N/A,,Clear,180,2012-12-30 09:55:00
11:55 AM,62.6,39.2,42,30.18,6.2,Calm,Calm,-,N/A,,Partly Cloudy,0,2012-12-30 10:55:00
12:55 PM,62.6,35.6,37,30.15,6.2,ESE,3.5,-,N/A,,Partly Cloudy,120,2012-12-30 11:55:00
1:00 PM,63,36,25,30.17,6,ESE,3.5,,,,Scattered Clouds,120,2012-12-30 12:00:00
1:55 PM,62.6,33.8,34,30.12,6.2,NE,2.3,-,N/A,,Partly Cloudy,50,2012-12-30 12:55:00
2:55 PM,60.8,42.8,52,30.12,6.2,East,11.5,-,N/A,,Partly Cloudy,100,2012-12-30 13:55:00
3:55 PM,59.0,44.6,59,30.12,6.2,East,11.5,-,N/A,,Partly Cloudy,90,2012-12-30 14:55:00
4:00 PM,59,45,50,30.15,6,East,11.5,,,,Scattered Clouds,90,2012-12-30 15:00:00
4:55 PM,55.4,46.4,72,30.15,6.2,East,8.1,-,N/A,,Partly Cloudy,90,2012-12-30 15:55:00
5:55 PM,53.6,46.4,77,30.15,6.2,East,6.9,-,N/A,,Mostly Cloudy,100,2012-12-30 16:55:00
6:55 PM,50.0,48.2,94,30.18,6.2,Calm,Calm,-,N/A,,Mostly Cloudy,0,2012-12-30 17:55:00
7:00 PM,51,48,85,30.20,6,Calm,Calm,,,,Mostly Cloudy,,2012-12-30 18:00:00
7:55 PM,50.0,48.2,94,30.21,6.2,South,3.5,-,N/A,,Mostly Cloudy,190,2012-12-30 18:55:00
8:55 PM,50.0,50.0,100,30.21,6.2,North,3.5,-,N/A,,Scattered Clouds,360,2012-12-30 19:55:00
9:55 PM,48.2,48.2,100,30.21,6.2,North,3.5,-,N/A,,Scattered Clouds,350,2012-12-30 20:55:00
10:00 PM,49,49,100,30.22,6,North,3.5,,,,Scattered Clouds,350,2012-12-30 21:00:00
10:55 PM,44.6,44.6,100,30.21,6.2,West,6.9,-,N/A,,Scattered Clouds,270,2012-12-30 21:55:00
11:55 PM,44.6,44.6,100,30.21,6.2,NW,5.8,-,N/A,,Partly Cloudy,310,2012-12-30 22:55:00